When you browse on this site, cookies collect data to enhance your experience and personalize the content and advertising you see.
Visit our Privacy Policy to learn more. By continuing to use the site, you agree to this use of cookies and data.
  • In Hungary
  • List of Countries
  • For 7 days
  • Water Temperature
  • Weather Map
  • News
  • Weather Widgets
  • user-avatar
    Login

    Hourly Weather Krzywiec

    Today, 22 August, Thursday

    Time Temperature Precipitation Wind Pressure Humidity
    00:00 +14°C° 0 mm 1 mps 761 mmHg 85%
    01:00 +13°C° 0 mm 1 mps 762 mmHg 85%
    02:00 +12°C° 0 mm 0 mps 762 mmHg 85%
    03:00 +12°C° 0 mm 0 mps 762 mmHg 85%
    04:00 +12°C° 0 mm 0 mps 761 mmHg 85%
    05:00 +13°C° 0 mm 0 mps 762 mmHg 81%
    06:00 +14°C° 0 mm 0 mps 762 mmHg 77%
    07:00 +16°C° 0 mm 1 mps 763 mmHg 73%
    08:00 +17°C° 0 mm 0 mps 763 mmHg 68%
    09:00 +18°C° 0 mm 0 mps 763 mmHg 62%
    10:00 +19°C° 0 mm 0 mps 763 mmHg 57%
    11:00 +22°C° 0 mm 1 mps 763 mmHg 53%
    12:00 +23°C° 0 mm 1 mps 762 mmHg 49%
    13:00 +24°C° 0 mm 1 mps 762 mmHg 46%
    14:00 +24°C° 0 mm 1 mps 762 mmHg 45%
    15:00 +24°C° 0 mm 1 mps 762 mmHg 45%
    16:00 +24°C° 0 mm 1 mps 761 mmHg 44%
    17:00 +22°C° 0 mm 1 mps 761 mmHg 50%
    18:00 +21°C° 0 mm 1 mps 761 mmHg 55%
    19:00 +19°C° 0 mm 1 mps 761 mmHg 61%
    20:00 +18°C° 0 mm 1 mps 761 mmHg 63%
    21:00 +17°C° 0 mm 2 mps 762 mmHg 65%
    22:00 +16°C° 0 mm 2 mps 762 mmHg 68%
    23:00 +16°C° 0 mm 2 mps 762 mmHg 69%

    Tomorrow, 23 August, Friday

    Time Temperature Precipitation Wind Pressure Humidity
    00:00 +15°C° 0 mm 2 mps 762 mmHg 70%
    01:00 +15°C° 0 mm 2 mps 762 mmHg 71%
    02:00 +15°C° 0 mm 2 mps 762 mmHg 72%
    03:00 +14°C° 0 mm 2 mps 762 mmHg 74%
    04:00 +14°C° 0 mm 2 mps 762 mmHg 76%
    05:00 +15°C° 0 mm 2 mps 762 mmHg 73%
    06:00 +16°C° 0 mm 2 mps 762 mmHg 71%
    07:00 +17°C° 0 mm 2 mps 762 mmHg 68%
    08:00 +19°C° 0 mm 2 mps 762 mmHg 62%
    09:00 +21°C° 0 mm 2 mps 762 mmHg 56%
    10:00 +23°C° 0 mm 2 mps 762 mmHg 49%
    11:00 +24°C° 0 mm 2 mps 762 mmHg 46%
    12:00 +25°C° 0 mm 2 mps 762 mmHg 43%
    13:00 +26°C° 0 mm 1 mps 761 mmHg 40%
    14:00 +26°C° 0 mm 1 mps 761 mmHg 40%
    15:00 +26°C° 0 mm 1 mps 761 mmHg 40%
    16:00 +26°C° 0 mm 1 mps 760 mmHg 40%
    17:00 +24°C° 0 mm 1 mps 760 mmHg 47%
    18:00 +22°C° 0 mm 1 mps 760 mmHg 53%
    19:00 +19°C° 0 mm 2 mps 760 mmHg 59%
    20:00 +19°C° 0 mm 2 mps 760 mmHg 62%
    21:00 +18°C° 0 mm 2 mps 760 mmHg 66%
    22:00 +17°C° 0 mm 2 mps 760 mmHg 69%
    23:00 +17°C° 0 mm 2 mps 760 mmHg 71%

    Day after tomorrow, 24 August, Saturday

    Time Temperature Precipitation Wind Pressure Humidity
    00:00 +17°C° 0 mm 2 mps 760 mmHg 72%
    01:00 +16°C° 0 mm 2 mps 760 mmHg 73%
    02:00 +16°C° 0 mm 2 mps 760 mmHg 74%
    03:00 +15°C° 0 mm 2 mps 760 mmHg 75%
    04:00 +15°C° 0 mm 2 mps 760 mmHg 76%
    05:00 +16°C° 0 mm 2 mps 759 mmHg 73%
    06:00 +17°C° 0 mm 2 mps 759 mmHg 70%
    07:00 +18°C° 0 mm 2 mps 759 mmHg 68%
    08:00 +20°C° 0 mm 2 mps 759 mmHg 62%
    09:00 +23°C° 0 mm 2 mps 760 mmHg 56%
    10:00 +25°C° 0 mm 2 mps 760 mmHg 49%
    11:00 +26°C° 0 mm 2 mps 759 mmHg 47%
    12:00 +26°C° 0 mm 3 mps 759 mmHg 44%
    13:00 +27°C° 0 mm 3 mps 759 mmHg 41%
    14:00 +27°C° 0 mm 3 mps 758 mmHg 42%
    15:00 +27°C° 0 mm 3 mps 758 mmHg 43%
    16:00 +27°C° 0 mm 3 mps 758 mmHg 44%
    17:00 +25°C° 0 mm 2 mps 758 mmHg 52%
    18:00 +23°C° 0 mm 2 mps 758 mmHg 59%
    19:00 +20°C° 0 mm 2 mps 758 mmHg 66%
    20:00 +19°C° 0 mm 2 mps 758 mmHg 68%
    21:00 +19°C° 0 mm 2 mps 758 mmHg 70%
    22:00 +18°C° 0 mm 3 mps 758 mmHg 73%
    23:00 +18°C° 0 mm 3 mps 758 mmHg 74%

    25 August, Sunday

    Time Temperature Precipitation Wind Pressure Humidity
    00:00 +17°C° 0 mm 3 mps 758 mmHg 75%
    01:00 +17°C° 0 mm 3 mps 758 mmHg 76%
    02:00 +17°C° 0 mm 3 mps 758 mmHg 76%
    03:00 +17°C° 0 mm 3 mps 758 mmHg 75%
    04:00 +16°C° 0 mm 3 mps 758 mmHg 75%
    05:00 +17°C° 0 mm 3 mps 758 mmHg 73%
    06:00 +18°C° 0 mm 3 mps 758 mmHg 71%
    07:00 +19°C° 0 mm 4 mps 758 mmHg 69%
    08:00 +21°C° 0 mm 4 mps 758 mmHg 62%
    09:00 +22°C° 0 mm 4 mps 758 mmHg 56%
    10:00 +25°C° 0 mm 5 mps 758 mmHg 50%
    11:00 +26°C° 0 mm 5 mps 758 mmHg 48%
    12:00 +27°C° 0 mm 5 mps 758 mmHg 46%
    13:00 +27°C° 0 mm 5 mps 758 mmHg 44%
    14:00 +27°C° 0 mm 5 mps 758 mmHg 45%
    15:00 +27°C° 0 mm 4 mps 757 mmHg 46%
    16:00 +27°C° 0 mm 4 mps 757 mmHg 48%
    17:00 +25°C° 0 mm 4 mps 757 mmHg 54%
    18:00 +24°C° 0 mm 3 mps 757 mmHg 61%
    19:00 +21°C° 0 mm 3 mps 757 mmHg 67%
    20:00 +20°C° 0 mm 3 mps 757 mmHg 69%
    21:00 +20°C° 0 mm 3 mps 758 mmHg 70%
    22:00 +19°C° 0 mm 4 mps 758 mmHg 71%
    23:00 +19°C° 0 mm 4 mps 758 mmHg 71%

    26 August, Monday

    Time Temperature Precipitation Wind Pressure Humidity
    00:00 +19°C° 0 mm 4 mps 758 mmHg 72%
    01:00 +18°C° 0 mm 4 mps 758 mmHg 72%
    02:00 +18°C° 0 mm 4 mps 757 mmHg 72%
    03:00 +18°C° 0 mm 4 mps 757 mmHg 72%
    04:00 +18°C° 0 mm 4 mps 757 mmHg 72%
    05:00 +18°C° 0 mm 4 mps 757 mmHg 70%
    06:00 +19°C° 0 mm 4 mps 757 mmHg 69%
    07:00 +20°C° 0 mm 4 mps 757 mmHg 67%
    08:00 +21°C° 0 mm 4 mps 757 mmHg 65%
    09:00 +23°C° 0 mm 4 mps 757 mmHg 62%
    10:00 +25°C° 0 mm 4 mps 757 mmHg 60%
    11:00 +26°C° 0 mm 4 mps 757 mmHg 58%
    12:00 +27°C° 0 mm 4 mps 757 mmHg 56%
    13:00 +28°C° 0 mm 4 mps 757 mmHg 55%
    14:00 +29°C° 0 mm 4 mps 757 mmHg 55%
    15:00 +29°C° 0 mm 4 mps 756 mmHg 55%
    16:00 +29°C° 0 mm 4 mps 756 mmHg 55%
    17:00 +27°C° 0 mm 4 mps 756 mmHg 60%
    18:00 +25°C° 0 mm 4 mps 756 mmHg 64%
    19:00 +24°C° 0 mm 3 mps 756 mmHg 69%
    20:00 +22°C° 0 mm 3 mps 756 mmHg 68%
    21:00 +22°C° 0 mm 4 mps 756 mmHg 67%
    22:00 +21°C° 0 mm 4 mps 756 mmHg 67%
    23:00 +21°C° 0 mm 3 mps 756 mmHg 68%

    27 August, Tuesday

    Time Temperature Precipitation Wind Pressure Humidity
    00:00 +20°C° 0 mm 3 mps 756 mmHg 70%
    01:00 +20°C° 0 mm 3 mps 756 mmHg 72%
    02:00 +19°C° 0 mm 3 mps 756 mmHg 74%
    03:00 +19°C° 0 mm 3 mps 756 mmHg 77%
    04:00 +19°C° 0 mm 2 mps 756 mmHg 79%
    05:00 +20°C° 0 mm 3 mps 756 mmHg 77%
    06:00 +20°C° 0 mm 3 mps 756 mmHg 75%
    07:00 +21°C° 0 mm 3 mps 756 mmHg 73%
    08:00 +24°C° 0 mm 3 mps 756 mmHg 67%
    09:00 +26°C° 0 mm 3 mps 756 mmHg 62%
    10:00 +28°C° 0 mm 3 mps 756 mmHg 56%
    11:00 +29°C° 0 mm 3 mps 756 mmHg 53%
    12:00 +30°C° 0 mm 3 mps 756 mmHg 49%
    13:00 +31°C° 0 mm 3 mps 755 mmHg 46%
    14:00 +31°C° 0 mm 3 mps 755 mmHg 46%
    15:00 +31°C° 0 mm 3 mps 755 mmHg 46%
    16:00 +31°C° 0 mm 3 mps 754 mmHg 47%
    17:00 +29°C° 0 mm 3 mps 754 mmHg 53%
    18:00 +27°C° 0 mm 3 mps 754 mmHg 59%
    19:00 +25°C° 0 mm 3 mps 754 mmHg 65%
    20:00 +25°C° 0.1 mm 3 mps 754 mmHg 67%
    21:00 +24°C° 0.1 mm 3 mps 754 mmHg 70%
    22:00 +22°C° 0.1 mm 3 mps 754 mmHg 72%
    23:00 +22°C° 0 mm 3 mps 754 mmHg 73%
    Show more